| time (UTC) | temp C | wind direction | speed KPH | gust KPH | rain 1hr cm | rain 24hr cm | rain mn cm | humidity % | barometer mb |
| 20260902085012 | 24 | 325 | 0.0 | 0.0 | 0.00 | 0.00 | 0.00 | 93 | 1015.9 |
| 20260902084535 | 24 | 325 | 0.0 | 0.0 | 0.00 | 0.00 | 0.00 | 93 | 1015.9 |
| 20260902084018 | 24 | 325 | 0.0 | 0.0 | 0.00 | 0.00 | 0.00 | 92 | 1015.8 |
| 20260902083505 | 24 | 325 | 0.0 | 0.0 | 0.00 | 0.00 | 0.00 | 92 | 1015.9 |
| 20260902083021 | 24 | 325 | 0.0 | 0.0 | 0.00 | 0.00 | 0.00 | 92 | 1016.0 |
| 20260902082506 | 24 | 325 | 0.0 | 0.0 | 0.00 | 0.00 | 0.00 | 93 | 1016.0 |
| 20260902082004 | 24 | 325 | 0.0 | 0.0 | 0.00 | 0.00 | 0.00 | 92 | 1015.9 |
| 20260902081532 | 24 | 325 | 0.0 | 0.0 | 0.00 | 0.00 | 0.00 | 92 | 1015.8 |
| 20260902081010 | 24 | 325 | 0.0 | 1.6 | 0.00 | 0.00 | 0.00 | 93 | 1015.8 |
| 20260902080512 | 24 | 325 | 0.0 | 1.6 | 0.00 | 0.00 | 0.00 | 93 | 1015.8 |
| 20260902080021 | 24 | 325 | 0.0 | 0.0 | 0.00 | 0.00 | 0.00 | 93 | 1015.9 |
| 20260902075512 | 24 | 325 | 0.0 | 0.0 | 0.00 | 0.00 | 0.00 | 93 | 1015.9 |
| 20260902075016 | 24 | 323 | 0.0 | 0.0 | 0.00 | 0.00 | 0.00 | 93 | 1015.9 |
| 20260902074522 | 24 | 324 | 0.0 | 1.6 | 0.00 | 0.00 | 0.00 | 93 | 1016.0 |
| 20260902074012 | 24 | 324 | 0.0 | 1.6 | 0.00 | 0.00 | 0.00 | 93 | 1015.9 |
| 20260902073517 | 24 | 360 | 0.0 | 0.0 | 0.00 | 0.00 | 0.00 | 92 | 1016.0 |
| 20260902073032 | 24 | 360 | 0.0 | 0.0 | 0.00 | 0.00 | 0.00 | 92 | 1016.1 |
| 20260902072506 | 24 | 360 | 0.0 | 0.0 | 0.00 | 0.00 | 0.00 | 92 | 1016.0 |
| 20260902072006 | 24 | 360 | 0.0 | 0.0 | 0.00 | 0.00 | 0.00 | 92 | 1016.1 |
| 20260902071544 | 24 | 360 | 0.0 | 0.0 | 0.00 | 0.00 | 0.00 | 92 | 1016.2 |
| 20260902071012 | 25 | 360 | 0.0 | 0.0 | 0.00 | 0.00 | 0.00 | 92 | 1016.1 |
| 20260902070509 | 25 | 360 | 0.0 | 0.0 | 0.00 | 0.00 | 0.00 | 92 | 1016.2 |
| 20260902070028 | 25 | 360 | 0.0 | 0.0 | 0.00 | 0.00 | 0.00 | 92 | 1016.2 |
| 20260902065516 | 25 | 360 | 0.0 | 0.0 | 0.00 | 0.00 | 0.00 | 92 | 1016.2 |
| 20260902065008 | 25 | 360 | 0.0 | 0.0 | 0.00 | 0.00 | 0.00 | 92 | 1016.1 |
| 20260902064531 | 25 | 360 | 0.0 | 0.0 | 0.00 | 0.00 | 0.00 | 92 | 1016.1 |
| 20260902064018 | 25 | 211 | 0.0 | 0.0 | 0.00 | 0.00 | 0.00 | 92 | 1016.2 |
| 20260902063514 | 25 | 211 | 0.0 | 0.0 | 0.00 | 0.00 | 0.00 | 92 | 1016.2 |
| 20260902063031 | 25 | 211 | 0.0 | 0.0 | 0.00 | 0.00 | 0.00 | 92 | 1016.3 |
| 20260902062515 | 25 | 211 | 0.0 | 0.0 | 0.00 | 0.00 | 0.00 | 92 | 1016.4 |
| 20260902062017 | 24 | 211 | 0.0 | 0.0 | 0.00 | 0.00 | 0.00 | 92 | 1016.4 |
| 20260902061539 | 24 | 211 | 0.0 | 0.0 | 0.00 | 0.00 | 0.00 | 91 | 1016.4 |
| 20260902061008 | 25 | 211 | 0.0 | 0.0 | 0.00 | 0.00 | 0.00 | 91 | 1016.4 |
| 20260902060508 | 25 | 211 | 0.0 | 0.0 | 0.00 | 0.00 | 0.00 | 91 | 1016.5 |
| 20260902060031 | 25 | 211 | 0.0 | 0.0 | 0.00 | 0.00 | 0.00 | 91 | 1016.6 |
| 20260902055511 | 25 | 211 | 0.0 | 0.0 | 0.00 | 0.00 | 0.00 | 91 | 1016.6 |
| 20260902055011 | 25 | 211 | 0.0 | 0.0 | 0.00 | 0.00 | 0.00 | 92 | 1016.6 |
| 20260902054535 | 25 | 212 | 0.0 | 0.0 | 0.00 | 0.00 | 0.00 | 91 | 1016.5 |
| 20260902054010 | 25 | 212 | 0.0 | 0.0 | 0.00 | 0.00 | 0.00 | 91 | 1016.6 |
| 20260902053514 | 25 | 212 | 0.0 | 0.0 | 0.00 | 0.00 | 0.00 | 91 | 1016.7 |
| 20260902053011 | 25 | 212 | 0.0 | 0.0 | 0.00 | 0.00 | 0.00 | 91 | 1016.6 |
| 20260902052505 | 25 | 212 | 0.0 | 0.0 | 0.00 | 0.00 | 0.00 | 91 | 1016.7 |
| 20260902052003 | 25 | 212 | 0.0 | 0.0 | 0.00 | 0.00 | 0.00 | 90 | 1016.6 |
| 20260902051512 | 25 | 212 | 0.0 | 0.0 | 0.00 | 0.00 | 0.00 | 90 | 1016.7 |
| 20260902051004 | 25 | 212 | 0.0 | 0.0 | 0.00 | 0.00 | 0.00 | 90 | 1016.7 |
| 20260902050507 | 25 | 212 | 0.0 | 0.0 | 0.00 | 0.00 | 0.00 | 90 | 1016.8 |
| 20260902050030 | 25 | 212 | 0.0 | 0.0 | 0.00 | 0.00 | 0.00 | 90 | 1016.7 |
| 20260902045511 | 25 | 212 | 0.0 | 0.0 | 0.00 | 0.00 | 0.00 | 90 | 1016.7 |
| 20260902045007 | 25 | 212 | 0.0 | 0.0 | 0.00 | 0.00 | 0.00 | 90 | 1016.7 |
| 20260902044531 | 25 | 212 | 0.0 | 0.0 | 0.00 | 0.00 | 0.00 | 90 | 1016.8 |
| 20260902044012 | 25 | 212 | 0.0 | 0.0 | 0.00 | 0.00 | 0.00 | 90 | 1016.7 |
| 20260902043504 | 25 | 212 | 0.0 | 0.0 | 0.00 | 0.00 | 0.00 | 90 | 1016.7 |
| 20260902043022 | 25 | 212 | 0.0 | 0.0 | 0.00 | 0.00 | 0.00 | 90 | 1016.7 |
| 20260902042513 | 25 | 212 | 0.0 | 0.0 | 0.00 | 0.00 | 0.00 | 1016.9 | |
| 20260902042020 | 25 | 212 | 0.0 | 0.0 | 0.00 | 0.00 | 0.00 | 1017.0 | |
| 20260902041514 | 25 | 212 | 0.0 | 0.0 | 0.00 | 0.00 | 0.00 | 90 | 1017.0 |
| 20260902041006 | 25 | 212 | 0.0 | 0.0 | 0.00 | 0.00 | 0.00 | 90 | 1016.9 |
| 20260902040507 | 25 | 212 | 0.0 | 0.0 | 0.00 | 0.00 | 0.00 | 90 | 1017.1 |
| 20260902040016 | 25 | 179 | 0.0 | 0.0 | 0.00 | 0.00 | 0.00 | 90 | 1017.2 |
| 20260902035506 | 25 | 179 | 0.0 | 0.0 | 0.00 | 0.00 | 0.00 | 1017.2 | |
| 20260902035011 | 25 | 179 | 0.0 | 0.0 | 0.00 | 0.00 | 0.00 | 1017.3 | |
| 20260902034524 | 25 | 179 | 0.0 | 0.0 | 0.00 | 0.00 | 0.00 | 1017.3 | |
| 20260902034007 | 25 | 179 | 0.0 | 0.0 | 0.00 | 0.00 | 0.00 | 1017.3 | |
| 20260902033509 | 25 | 179 | 0.0 | 0.0 | 0.00 | 0.00 | 0.00 | 1017.3 | |
| 20260902033031 | 25 | 179 | 0.0 | 0.0 | 0.00 | 0.00 | 0.00 | 1017.3 | |
| 20260902032506 | 25 | 179 | 0.0 | 0.0 | 0.00 | 0.00 | 0.00 | 89 | 1017.4 |
| 20260902032012 | 25 | 179 | 0.0 | 0.0 | 0.00 | 0.00 | 0.00 | 89 | 1017.3 |
| 20260902031532 | 25 | 179 | 0.0 | 0.0 | 0.00 | 0.00 | 0.00 | 89 | 1017.3 |
| 20260902031017 | 25 | 179 | 0.0 | 0.0 | 0.00 | 0.00 | 0.00 | 89 | 1017.5 |
| 20260902030505 | 25 | 179 | 0.0 | 0.0 | 0.00 | 0.00 | 0.00 | 88 | 1017.6 |
| 20260902030013 | 26 | 179 | 0.0 | 0.0 | 0.00 | 0.00 | 0.00 | 88 | 1017.5 |
| 20260902025507 | 26 | 179 | 0.0 | 0.0 | 0.00 | 0.00 | 0.00 | 88 | 1017.5 |
| 20260902025008 | 26 | 179 | 0.0 | 0.0 | 0.00 | 0.00 | 0.00 | 88 | 1017.6 |
| 20260902024521 | 26 | 179 | 0.0 | 0.0 | 0.00 | 0.00 | 0.00 | 88 | 1017.6 |
| 20260902024011 | 26 | 179 | 0.0 | 0.0 | 0.00 | 0.00 | 0.00 | 88 | 1017.6 |
| 20260902023510 | 26 | 179 | 0.0 | 0.0 | 0.00 | 0.00 | 0.00 | 88 | 1017.6 |
| 20260902023019 | 26 | 179 | 0.0 | 0.0 | 0.00 | 0.00 | 0.00 | 87 | 1017.6 |
| 20260902022510 | 26 | 179 | 0.0 | 0.0 | 0.00 | 0.00 | 0.00 | 87 | 1017.5 |
| 20260902022013 | 26 | 179 | 0.0 | 0.0 | 0.00 | 0.00 | 0.00 | 87 | 1017.4 |
| 20260902021531 | 26 | 179 | 0.0 | 0.0 | 0.00 | 0.00 | 0.00 | 87 | 1017.4 |
| 20260902021007 | 26 | 179 | 0.0 | 0.0 | 0.00 | 0.00 | 0.00 | 87 | 1017.4 |
| 20260902020515 | 26 | 179 | 0.0 | 0.0 | 0.00 | 0.00 | 0.00 | 87 | 1017.2 |
| 20260902020033 | 26 | 179 | 0.0 | 0.0 | 0.00 | 0.00 | 0.00 | 87 | 1017.2 |
| 20260902015507 | 26 | 179 | 0.0 | 0.0 | 0.00 | 0.00 | 0.00 | 86 | 1017.1 |
| 20260902015007 | 26 | 179 | 0.0 | 0.0 | 0.00 | 0.00 | 0.00 | 87 | 1017.2 |
| 20260902014523 | 26 | 179 | 0.0 | 0.0 | 0.00 | 0.00 | 0.00 | 86 | 1017.1 |
| 20260902014006 | 26 | 179 | 0.0 | 0.0 | 0.00 | 0.00 | 0.00 | 86 | 1017.1 |
| 20260902013511 | 26 | 179 | 0.0 | 1.6 | 0.00 | 0.00 | 0.00 | 86 | 1017.2 |
| 20260902013031 | 26 | 179 | 0.0 | 1.6 | 0.00 | 0.00 | 0.00 | 86 | 1017.2 |
| 20260902012510 | 26 | 165 | 0.0 | 1.6 | 0.00 | 0.00 | 0.00 | 86 | 1017.1 |
| 20260902012006 | 26 | 155 | 0.0 | 1.6 | 0.00 | 0.00 | 0.00 | 86 | 1017.0 |
| 20260902011528 | 26 | 148 | 0.0 | 1.6 | 0.00 | 0.00 | 0.00 | 86 | 1017.1 |
| 20260902011013 | 26 | 200 | 0.0 | 1.6 | 0.00 | 0.00 | 0.00 | 85 | 1017.0 |
| 20260902010518 | 26 | 207 | 0.0 | 0.0 | 0.00 | 0.00 | 0.00 | 85 | 1017.1 |
| 20260902010038 | 26 | 207 | 0.0 | 0.0 | 0.00 | 0.00 | 0.00 | 85 | 1017.0 |
| 20260902005513 | 26 | 207 | 0.0 | 0.0 | 0.00 | 0.00 | 0.00 | 85 | 1017.1 |
| 20260902005016 | 26 | 207 | 0.0 | 0.0 | 0.00 | 0.00 | 0.00 | 84 | 1017.0 |
| 20260902004520 | 26 | 207 | 0.0 | 0.0 | 0.00 | 0.00 | 0.00 | 84 | 1017.0 |
| 20260902004011 | 27 | 207 | 0.0 | 0.0 | 0.00 | 0.00 | 0.00 | 84 | 1017.0 |
| 20260902003507 | 27 | 207 | 0.0 | 1.6 | 0.00 | 0.00 | 0.00 | 83 | 1016.9 |
| 20260902003028 | 27 | 206 | 0.0 | 1.6 | 0.00 | 0.00 | 0.00 | 83 | 1017.0 |
| 20260902002511 | 27 | 194 | 0.0 | 3.2 | 0.00 | 0.00 | 0.00 | 82 | 1016.9 |
| 20260902002013 | 27 | 188 | 0.0 | 6.4 | 0.00 | 0.00 | 0.00 | 82 | 1016.8 |
| 20260902001530 | 27 | 204 | 1.6 | 6.4 | 0.00 | 0.00 | 0.00 | 81 | 1016.8 |
| 20260902001011 | 27 | 189 | 0.0 | 1.6 | 0.00 | 0.00 | 0.00 | 80 | 1016.8 |
| 20260902000514 | 27 | 101 | 0.0 | 4.8 | 0.00 | 0.00 | 0.00 | 79 | 1016.7 |
| 20260902000042 | 28 | 29 | 0.0 | 6.4 | 0.00 | 0.00 | 0.00 | 79 | 1016.7 |
| 20260901235517 | 28 | 40 | 1.6 | 6.4 | 0.00 | 0.00 | 0.00 | 79 | 1016.7 |
| 20260901235010 | 28 | 17 | 0.0 | 6.4 | 0.00 | 0.00 | 0.00 | 79 | 1016.7 |
| 20260901234531 | 28 | 5 | 0.0 | 6.4 | 0.00 | 0.00 | 0.00 | 79 | 1016.7 |
| 20260901234018 | 28 | 17 | 0.0 | 1.6 | 0.00 | 0.00 | 0.00 | 79 | 1016.5 |
| 20260901233515 | 28 | 5 | 0.0 | 8.0 | 0.00 | 0.00 | 0.00 | 78 | 1016.6 |
| 20260901233026 | 28 | 19 | 1.6 | 8.0 | 0.00 | 0.00 | 0.00 | 77 | 1016.6 |
| 20260901232508 | 28 | 26 | 0.0 | 8.0 | 0.00 | 0.00 | 0.00 | 76 | 1016.5 |
| 20260901232012 | 28 | 44 | 1.6 | 8.0 | 0.00 | 0.00 | 0.00 | 75 | 1016.5 |
| 20260901231523 | 28 | 27 | 1.6 | 8.0 | 0.00 | 0.00 | 0.00 | 75 | 1016.3 |
| 20260901231011 | 28 | 40 | 1.6 | 9.7 | 0.00 | 0.00 | 0.00 | 74 | 1016.4 |
| 20260901230513 | 29 | 13 | 1.6 | 9.7 | 0.00 | 0.00 | 0.00 | 72 | 1016.4 |
| 20260901230033 | 29 | 13 | 1.6 | 9.7 | 0.00 | 0.00 | 0.00 | 72 | 1016.4 |
| 20260901225512 | 29 | 26 | 0.0 | 8.0 | 0.00 | 0.00 | 0.00 | 72 | 1016.4 |
| 20260901225013 | 29 | 19 | 3.2 | 12.9 | 0.00 | 0.00 | 0.00 | 71 | 1016.5 |
| 20260901224540 | 29 | 13 | 4.8 | 12.9 | 0.00 | 0.00 | 0.00 | 71 | 1016.5 |
| 20260901224010 | 29 | 23 | 1.6 | 9.7 | 0.00 | 0.00 | 0.00 | 72 | 1016.4 |
| 20260901223517 | 30 | 335 | 1.6 | 12.9 | 0.00 | 0.00 | 0.00 | 72 | 1016.4 |
| 20260901223045 | 30 | 16 | 3.2 | 12.9 | 0.00 | 0.00 | 0.00 | 72 | 1016.5 |
| 20260901222519 | 30 | 19 | 3.2 | 12.9 | 0.00 | 0.00 | 0.00 | 72 | 1016.5 |
| 20260901222011 | 30 | 9 | 0.0 | 9.7 | 0.00 | 0.00 | 0.00 | 72 | 1016.4 |
| 20260901221531 | 30 | 44 | 0.0 | 12.9 | 0.00 | 0.00 | 0.00 | 72 | 1016.3 |
| 20260901221011 | 30 | 87 | 1.6 | 17.7 | 0.00 | 0.00 | 0.00 | 71 | 1016.4 |
| 20260901220514 | 30 | 82 | 1.6 | 17.7 | 0.00 | 0.00 | 0.00 | 70 | 1016.4 |
| 20260901220006 | 30 | 71 | 6.4 | 14.5 | 0.00 | 0.00 | 0.00 | 70 | 1016.3 |
| 20260901215505 | 30 | 71 | 1.6 | 11.3 | 0.00 | 0.00 | 0.00 | 70 | 1016.2 |
| 20260901215002 | 30 | 17 | 0.0 | 17.7 | 0.00 | 0.00 | 0.00 | 70 | 1016.2 |
| 20260901214505 | 30 | 76 | 4.8 | 17.7 | 0.00 | 0.00 | 0.00 | 69 | 1016.1 |
| 20260901214004 | 31 | 360 | 3.2 | 17.7 | 0.00 | 0.00 | 0.00 | 69 | 1016.1 |
| 20260901213508 | 31 | 19 | 8.0 | 16.1 | 0.00 | 0.00 | 0.00 | 68 | 1016.0 |
| 20260901213012 | 31 | 43 | 1.6 | 16.1 | 0.00 | 0.00 | 0.00 | 66 | 1015.9 |
| 20260901212504 | 32 | 64 | 4.8 | 16.1 | 0.00 | 0.00 | 0.00 | 66 | 1016.1 |
| 20260901212004 | 32 | 32 | 4.8 | 16.1 | 0.00 | 0.00 | 0.00 | 65 | 1016.1 |
| 20260901211524 | 32 | 13 | 4.8 | 20.9 | 0.00 | 0.00 | 0.00 | 66 | 1016.0 |
| 20260901211010 | 32 | 78 | 4.8 | 25.7 | 0.00 | 0.00 | 0.00 | 67 | 1016.1 |
| 20260901210503 | 32 | 5 | 9.7 | 25.7 | 0.00 | 0.00 | 0.00 | 67 | 1016.1 |
| 20260901210024 | 32 | 49 | 8.0 | 20.9 | 0.00 | 0.00 | 0.00 | 67 | 1016.0 |
| 20260901205510 | 32 | 59 | 9.7 | 17.7 | 0.00 | 0.00 | 0.00 | 66 | 1016.0 |
| 20260901205006 | 32 | 344 | 6.4 | 20.9 | 0.00 | 0.00 | 0.00 | 67 | 1016.3 |
| 20260901204515 | 32 | 58 | 8.0 | 20.9 | 0.00 | 0.00 | 0.00 | 68 | 1016.1 |
| 20260901204003 | 32 | 130 | 3.2 | 20.9 | 0.00 | 0.00 | 0.00 | 71 | 1016.1 |
| 20260901203503 | 32 | 36 | 6.4 | 17.7 | 0.00 | 0.00 | 0.00 | 73 | 1015.9 |
| 20260901203006 | 31 | 32 | 8.0 | 16.1 | 0.00 | 0.00 | 0.00 | 74 | 1016.0 |
| 20260901202506 | 31 | 360 | 1.6 | 16.1 | 0.00 | 0.00 | 0.00 | 76 | 1016.0 |
| 20260901202006 | 30 | 30 | 1.6 | 16.1 | 0.00 | 0.00 | 0.00 | 75 | 1016.2 |
| 20260901201515 | 30 | 69 | 3.2 | 16.1 | 0.00 | 0.00 | 0.00 | 76 | 1016.2 |
| 20260901201003 | 30 | 57 | 1.6 | 16.1 | 0.00 | 0.00 | 0.00 | 76 | 1016.3 |
| 20260901200507 | 30 | 61 | 3.2 | 16.1 | 0.00 | 0.00 | 0.00 | 76 | 1016.3 |
| 20260901200039 | 30 | 15 | 0.0 | 12.9 | 0.00 | 0.00 | 0.00 | 76 | 1016.2 |
| 20260901195504 | 30 | 40 | 3.2 | 11.3 | 0.00 | 0.00 | 0.00 | 75 | 1016.3 |
| 20260901195003 | 30 | 34 | 1.6 | 9.7 | 0.00 | 0.00 | 0.00 | 74 | 1016.3 |
| 20260901194523 | 31 | 22 | 1.6 | 8.0 | 0.00 | 0.00 | 0.00 | 73 | 1016.3 |
| 20260901194008 | 31 | 347 | 4.8 | 14.5 | 0.00 | 0.00 | 0.00 | 72 | 1016.3 |
| 20260901193503 | 31 | 21 | 4.8 | 14.5 | 0.00 | 0.00 | 0.00 | 71 | 1016.3 |
| 20260901193008 | 31 | 342 | 6.4 | 14.5 | 0.00 | 0.00 | 0.00 | 74 | 1016.3 |
| 20260901192505 | 31 | 67 | 3.2 | 9.7 | 0.00 | 0.00 | 0.00 | 78 | 1016.4 |
| 20260901192005 | 30 | 339 | 1.6 | 9.7 | 0.00 | 0.00 | 0.00 | 77 | 1016.5 |
| 20260901191513 | 30 | 12 | 3.2 | 9.7 | 0.00 | 0.00 | 0.00 | 79 | 1016.5 |
| 20260901191010 | 29 | 5 | 1.6 | 6.4 | 0.00 | 0.00 | 0.00 | 80 | 1016.6 |
| 20260901190506 | 29 | 329 | 0.0 | 6.4 | 0.00 | 0.00 | 0.00 | 80 | 1016.6 |
| 20260901190010 | 28 | 313 | 0.0 | 8.0 | 0.00 | 0.00 | 0.00 | 80 | 1016.6 |
| 20260901185508 | 28 | 20 | 0.0 | 8.0 | 0.00 | 0.00 | 0.00 | 80 | 1016.8 |
| 20260901185011 | 28 | 347 | 1.6 | 12.9 | 0.00 | 0.00 | 0.00 | 80 | 1017.0 |
| 20260901184525 | 28 | 331 | 0.0 | 12.9 | 0.00 | 0.00 | 0.00 | 80 | 1017.1 |
| 20260901184004 | 28 | 13 | 6.4 | 12.9 | 0.00 | 0.00 | 0.00 | 79 | 1017.1 |
| 20260901183511 | 28 | 343 | 1.6 | 8.0 | 0.00 | 0.00 | 0.00 | 79 | 1017.2 |
| 20260901183022 | 28 | 360 | 0.0 | 9.7 | 0.00 | 0.00 | 0.00 | 79 | 1017.2 |
| 20260901182503 | 28 | 352 | 1.6 | 9.7 | 0.00 | 0.00 | 0.00 | 78 | 1017.3 |
| 20260901182008 | 28 | 334 | 1.6 | 12.9 | 0.00 | 0.00 | 0.00 | 78 | 1017.2 |
| 20260901181509 | 28 | 350 | 1.6 | 12.9 | 0.00 | 0.00 | 0.00 | 78 | 1017.3 |
| 20260901181004 | 28 | 23 | 0.0 | 9.7 | 0.00 | 0.00 | 0.00 | 79 | 1017.3 |
| 20260901180506 | 28 | 360 | 0.0 | 9.7 | 0.00 | 0.00 | 0.00 | 78 | 1017.4 |
| 20260901180026 | 28 | 313 | 1.6 | 12.9 | 0.00 | 0.00 | 0.00 | 77 | 1017.5 |
| 20260901175508 | 28 | 340 | 3.2 | 12.9 | 0.00 | 0.00 | 0.00 | 76 | 1017.6 |
| 20260901175004 | 29 | 304 | 1.6 | 14.5 | 0.00 | 0.00 | 0.00 | 75 | 1017.7 |
| 20260901174518 | 29 | 327 | 3.2 | 16.1 | 0.00 | 0.00 | 0.00 | 74 | 1017.7 |
| 20260901174011 | 29 | 340 | 3.2 | 17.7 | 0.00 | 0.00 | 0.00 | 75 | 1017.8 |
| 20260901173514 | 30 | 324 | 9.7 | 19.3 | 0.00 | 0.00 | 0.00 | 74 | 1017.9 |
| 20260901173016 | 31 | 13 | 6.4 | 20.9 | 0.00 | 0.00 | 0.00 | 74 | 1017.9 |
| 20260901172508 | 31 | 36 | 6.4 | 27.4 | 0.00 | 0.00 | 0.00 | 76 | 1018.0 |
| 20260901172015 | 30 | 348 | 12.9 | 27.4 | 0.00 | 0.00 | 0.00 | 73 | 1018.1 |
| 20260901171510 | 30 | 26 | 14.5 | 30.6 | 0.00 | 0.00 | 0.00 | 71 | 1018.0 |
| 20260901171009 | 31 | 347 | 16.1 | 30.6 | 0.00 | 0.00 | 0.00 | 74 | 1017.9 |
| 20260901170507 | 30 | 46 | 8.0 | 27.4 | 0.00 | 0.00 | 0.00 | 75 | 1017.9 |
| 20260901170024 | 31 | 340 | 16.1 | 27.4 | 0.00 | 0.00 | 0.00 | 72 | 1018.0 |
| 20260901165504 | 31 | 51 | 8.0 | 27.4 | 0.00 | 0.00 | 0.00 | 72 | 1017.9 |
| 20260901165010 | 32 | 5 | 1.6 | 9.7 | 0.00 | 0.00 | 0.00 | 71 | 1018.0 |
| 20260901164516 | 32 | 318 | 0.0 | 6.4 | 0.00 | 0.00 | 0.00 | 71 | 1018.0 |
| 20260901164008 | 32 | 360 | 0.0 | 6.4 | 0.00 | 0.00 | 0.00 | 74 | 1017.9 |
| 20260901163510 | 31 | 86 | 0.0 | 4.8 | 0.00 | 0.00 | 0.00 | 75 | 1018.0 |
| 20260901163027 | 31 | 105 | 0.0 | 4.8 | 0.00 | 0.00 | 0.00 | 72 | 1018.0 |
| 20260901162512 | 31 | 327 | 0.0 | 1.6 | 0.00 | 0.00 | 0.00 | 72 | 1018.0 |
| 20260901162004 | 31 | 42 | 0.0 | 6.4 | 0.00 | 0.00 | 0.00 | 72 | 1018.0 |
| 20260901161524 | 31 | 11 | 0.0 | 6.4 | 0.00 | 0.00 | 0.00 | 73 | 1018.0 |
| 20260901161015 | 31 | 5 | 0.0 | 6.4 | 0.00 | 0.00 | 0.00 | 73 | 1017.9 |
| 20260901160513 | 31 | 73 | 0.0 | 1.6 | 0.00 | 0.00 | 0.00 | 75 | 1018.0 |
| 20260901160030 | 31 | 76 | 0.0 | 1.6 | 0.00 | 0.00 | 0.00 | 73 | 1018.0 |
| 20260901155513 | 31 | 352 | 0.0 | 1.6 | 0.00 | 0.00 | 0.00 | 74 | 1018.2 |
| 20260901155005 | 31 | 319 | 0.0 | 6.4 | 0.00 | 0.00 | 0.00 | 74 | 1018.2 |
| 20260901154516 | 31 | 11 | 0.0 | 8.0 | 0.00 | 0.00 | 0.00 | 74 | 1018.3 |
| 20260901154008 | 31 | 50 | 0.0 | 8.0 | 0.00 | 0.00 | 0.00 | 74 | 1018.2 |
| 20260901153508 | 31 | 44 | 0.0 | 6.4 | 0.00 | 0.00 | 0.00 | 75 | 1018.3 |
| 20260901153024 | 31 | 67 | 1.6 | 6.4 | 0.00 | 0.00 | 0.00 | 75 | 1018.4 |
| 20260901152508 | 32 | 331 | 0.0 | 3.2 | 0.00 | 0.00 | 0.00 | 76 | 1018.3 |
| 20260901152015 | 31 | 61 | 0.0 | 3.2 | 0.00 | 0.00 | 0.00 | 77 | 1018.4 |
| 20260901151529 | 31 | 340 | 0.0 | 3.2 | 0.00 | 0.00 | 0.00 | 77 | 1018.4 |
| 20260901151007 | 31 | 79 | 0.0 | 1.6 | 0.00 | 0.00 | 0.00 | 78 | 1018.4 |
| 20260901150512 | 31 | 50 | 0.0 | 1.6 | 0.00 | 0.00 | 0.00 | 80 | 1018.3 |
| 20260901150030 | 31 | 32 | 0.0 | 1.6 | 0.00 | 0.00 | 0.00 | 79 | 1018.3 |
| 20260901145512 | 31 | 51 | 0.0 | 1.6 | 0.00 | 0.00 | 0.00 | 80 | 1018.4 |
| 20260901145008 | 30 | 40 | 0.0 | 1.6 | 0.00 | 0.00 | 0.00 | 79 | 1018.4 |
| 20260901144527 | 30 | 334 | 0.0 | 1.6 | 0.00 | 0.00 | 0.00 | 82 | 1018.3 |
| 20260901144007 | 30 | 68 | 0.0 | 4.8 | 0.00 | 0.00 | 0.00 | 82 | 1018.3 |
| 20260901143508 | 30 | 9 | 0.0 | 4.8 | 0.00 | 0.00 | 0.00 | 84 | 1018.4 |
| 20260901143020 | 29 | 28 | 0.0 | 3.2 | 0.00 | 0.00 | 0.00 | 85 | 1018.3 |
| 20260901142508 | 29 | 50 | 0.0 | 3.2 | 0.00 | 0.00 | 0.00 | 84 | 1018.2 |
| 20260901142009 | 28 | 26 | 0.0 | 1.6 | 0.00 | 0.00 | 0.00 | 86 | 1018.1 |
| 20260901141534 | 28 | 13 | 0.0 | 1.6 | 0.00 | 0.00 | 0.00 | 87 | 1018.2 |
| 20260901141014 | 28 | 360 | 0.0 | 1.6 | 0.00 | 0.00 | 0.00 | 87 | 1018.2 |
| 20260901140512 | 28 | 9 | 0.0 | 1.6 | 0.00 | 0.00 | 0.00 | 88 | 1018.1 |
| 20260901140031 | 28 | 360 | 0.0 | 1.6 | 0.00 | 0.00 | 0.00 | 90 | 1018.1 |
| 20260901135512 | 27 | 40 | 0.0 | 3.2 | 0.00 | 0.00 | 0.00 | 91 | 1018.1 |
| 20260901135019 | 27 | 27 | 0.0 | 3.2 | 0.00 | 0.00 | 0.00 | 91 | 1018.2 |
| 20260901134531 | 27 | 108 | 0.0 | 1.6 | 0.00 | 0.00 | 0.00 | 92 | 1018.1 |
| 20260901134008 | 27 | 333 | 0.0 | 4.8 | 0.00 | 0.00 | 0.00 | 92 | 1018.0 |
| 20260901133513 | 26 | 352 | 0.0 | 4.8 | 0.00 | 0.00 | 0.00 | 93 | 1018.0 |
| 20260901133038 | 26 | 11 | 0.0 | 1.6 | 0.00 | 0.00 | 0.00 | 93 | 1018.0 |
| 20260901132511 | 26 | 360 | 0.0 | 1.6 | 0.00 | 0.00 | 0.00 | 93 | 1018.1 |
| 20260901132011 | 26 | 53 | 0.0 | 4.8 | 0.00 | 0.00 | 0.00 | 93 | 1018.0 |
| 20260901131531 | 26 | 81 | 0.0 | 4.8 | 0.00 | 0.00 | 0.00 | 93 | 1018.0 |
| 20260901131011 | 26 | 38 | 0.0 | 1.6 | 0.00 | 0.00 | 0.00 | 94 | 1017.9 |
| 20260901130504 | 26 | 64 | 0.0 | 1.6 | 0.00 | 0.00 | 0.00 | 94 | 1017.9 |
| 20260901130006 | 26 | 9 | 0.0 | 1.6 | 0.00 | 0.00 | 0.00 | 95 | 1017.8 |
| 20260901125503 | 26 | 34 | 0.0 | 1.6 | 0.00 | 0.00 | 0.00 | 95 | 1017.9 |
| 20260901125005 | 25 | 41 | 0.0 | 1.6 | 0.00 | 0.00 | 0.00 | 95 | 1017.8 |
| 20260901124509 | 25 | 27 | 0.0 | 3.2 | 0.00 | 0.00 | 0.00 | 95 | 1017.8 |
| 20260901124002 | 25 | 44 | 0.0 | 3.2 | 0.00 | 0.00 | 0.00 | 95 | 1017.7 |
| 20260901123507 | 25 | 52 | 0.0 | 1.6 | 0.00 | 0.00 | 0.00 | 1017.6 | |
| 20260901123014 | 25 | 333 | 0.0 | 0.0 | 0.00 | 0.00 | 0.00 | 95 | 1017.5 |
| 20260901122504 | 25 | 332 | 0.0 | 0.0 | 0.00 | 0.00 | 0.00 | 95 | 1017.6 |
| 20260901122003 | 25 | 332 | 0.0 | 0.0 | 0.00 | 0.00 | 0.00 | 95 | 1017.5 |
| 20260901121520 | 25 | 332 | 0.0 | 0.0 | 0.00 | 0.00 | 0.00 | 95 | 1017.5 |
| 20260901121011 | 25 | 332 | 0.0 | 0.0 | 0.00 | 0.00 | 0.00 | 95 | 1017.5 |
| 20260901120504 | 25 | 332 | 0.0 | 0.0 | 0.00 | 0.00 | 0.00 | 95 | 1017.5 |
| 20260901120005 | 25 | 332 | 0.0 | 0.0 | 0.00 | 0.00 | 0.00 | 95 | 1017.4 |
| 20260901115503 | 25 | 332 | 0.0 | 0.0 | 0.00 | 0.00 | 0.00 | 95 | 1017.4 |
| 20260901115003 | 25 | 329 | 0.0 | 0.0 | 0.00 | 0.00 | 0.00 | 95 | 1017.3 |
| 20260901114506 | 25 | 329 | 0.0 | 0.0 | 0.00 | 0.00 | 0.00 | 95 | 1017.3 |
| 20260901114004 | 25 | 329 | 0.0 | 0.0 | 0.00 | 0.00 | 0.00 | 95 | 1017.3 |
| 20260901113504 | 25 | 329 | 0.0 | 0.0 | 0.00 | 0.00 | 0.00 | 95 | 1017.2 |
| 20260901113006 | 25 | 331 | 0.0 | 0.0 | 0.00 | 0.00 | 0.00 | 95 | 1017.2 |
| 20260901112503 | 24 | 337 | 0.0 | 0.0 | 0.00 | 0.00 | 0.00 | 94 | 1017.2 |
| 20260901112011 | 24 | 337 | 0.0 | 1.6 | 0.00 | 0.00 | 0.00 | 94 | 1017.2 |
| 20260901111518 | 24 | 337 | 0.0 | 1.6 | 0.00 | 0.00 | 0.00 | 94 | 1017.1 |
| 20260901111004 | 24 | 328 | 0.0 | 0.0 | 0.00 | 0.00 | 0.00 | 95 | 1017.2 |
| 20260901110506 | 24 | 337 | 0.0 | 1.6 | 0.00 | 0.00 | 0.00 | 95 | 1017.1 |
| 20260901110026 | 24 | 336 | 0.0 | 1.6 | 0.00 | 0.00 | 0.00 | 95 | 1017.1 |
| 20260901105503 | 24 | 331 | 0.0 | 0.0 | 0.00 | 0.00 | 0.00 | 94 | 1017.1 |
| 20260901105006 | 24 | 332 | 0.0 | 0.0 | 0.00 | 0.00 | 0.00 | 94 | 1017.0 |
| 20260901104506 | 24 | 331 | 0.0 | 0.0 | 0.00 | 0.00 | 0.00 | 94 | 1016.9 |
| 20260901104004 | 24 | 331 | 0.0 | 0.0 | 0.00 | 0.00 | 0.00 | 94 | 1016.9 |
| 20260901103504 | 24 | 331 | 0.0 | 0.0 | 0.00 | 0.00 | 0.00 | 94 | 1016.9 |
| 20260901103011 | 24 | 333 | 0.0 | 0.0 | 0.00 | 0.00 | 0.00 | 94 | 1017.0 |
| 20260901102505 | 23 | 333 | 0.0 | 0.0 | 0.00 | 0.00 | 0.00 | 94 | 1016.8 |
| 20260901102003 | 23 | 334 | 0.0 | 0.0 | 0.00 | 0.00 | 0.00 | 94 | 1016.8 |
| 20260901101514 | 23 | 341 | 0.0 | 0.0 | 0.00 | 0.00 | 0.00 | 94 | 1016.7 |
| 20260901101008 | 23 | 350 | 0.0 | 0.0 | 0.00 | 0.00 | 0.00 | 94 | 1016.7 |
| 20260901100508 | 23 | 350 | 0.0 | 0.0 | 0.00 | 0.00 | 0.00 | 94 | 1016.6 |
| 20260901100011 | 23 | 360 | 0.0 | 0.0 | 0.00 | 0.00 | 0.00 | 94 | 1016.5 |
| 20260901095507 | 23 | 360 | 0.0 | 0.0 | 0.00 | 0.00 | 0.00 | 93 | 1016.6 |
| 20260901095012 | 23 | 360 | 0.0 | 0.0 | 0.00 | 0.00 | 0.00 | 94 | 1016.5 |
| 20260901094506 | 23 | 360 | 0.0 | 0.0 | 0.00 | 0.00 | 0.00 | 94 | 1016.4 |
| 20260901094004 | 23 | 360 | 0.0 | 0.0 | 0.00 | 0.00 | 0.00 | 94 | 1016.4 |
| 20260901093504 | 23 | 360 | 0.0 | 0.0 | 0.00 | 0.00 | 0.00 | 93 | 1016.4 |
| 20260901093008 | 23 | 360 | 0.0 | 0.0 | 0.00 | 0.00 | 0.00 | 93 | 1016.4 |
| 20260901092504 | 23 | 360 | 0.0 | 0.0 | 0.00 | 0.00 | 0.00 | 93 | 1016.4 |
| 20260901092007 | 23 | 360 | 0.0 | 0.0 | 0.00 | 0.00 | 0.00 | 93 | 1016.4 |
| 20260901091514 | 23 | 360 | 0.0 | 0.0 | 0.00 | 0.00 | 0.00 | 93 | 1016.3 |
| 20260901091005 | 23 | 360 | 0.0 | 0.0 | 0.00 | 0.00 | 0.00 | 93 | 1016.2 |
| 20260901090505 | 23 | 360 | 0.0 | 0.0 | 0.00 | 0.00 | 0.00 | 93 | 1016.2 |
| 20260901090028 | 23 | 360 | 0.0 | 0.0 | 0.00 | 0.00 | 0.00 | 93 | 1016.3 |
| 20260901085507 | 23 | 360 | 0.0 | 0.0 | 0.00 | 0.00 | 0.00 | 93 | 1016.3 |